Location: Oroua River
(40.4333°S, 175.4333°E)
Time: 13:41:46
(UTC+00:00)

Cosmos 1833 Rocket - Pass Details

Date: 03 February 2023
Orbit: 831 x 840 km, 71.0° (Epoch: 22 March)

Event Time Altitude Azimuth Distance (km) Brightness Sun altitude
Rises 12:01:06 0° 211° (SSW) 3,421 6.8 -32.6°
Reaches altitude 10° 12:03:41 10° 218° (SW) 2,477 5.8 -32.7°
Enters shadow 12:07:16 32° 248° (WSW) 1,413 4.0 -32.8°
